Simultaneous Nadir Overpasses (SNOs) Predictions

Prediction of SNOs between AQUA and METOP-A Satellite Orbit:

Table of predicted SNOs for the next 14.0 days since TLE Epoch: 2/2/2018
Index Date (AQUA) Time (AQUA) Lat,Lon (AQUA) SZA (AQUA ) Date (METOP-A) Time (METOP-A) Lat,Lon (METOP-A) SZA (METOP-A ) Distance(km) Time Diff (sec)
1 02/03/2018 05:50:24 74.11, 86.04 90.77 02/03/2018 05:49:39 74.14, 86.00 90.80 3.13 45
2 02/03/2018 06:39:51 -74.20,-106.52 89.15 02/03/2018 06:40:19 -74.21,-106.50 89.15 1.09 28
3 02/06/2018 01:24:40 74.12, 152.46 89.93 02/06/2018 01:23:57 74.11, 152.35 89.94 3.43 43
4 02/06/2018 02:14:07 -74.20, -40.09 90.00 02/06/2018 02:14:37 -74.18, -40.15 90.01 2.51 30
5 02/08/2018 20:58:57 74.13,-141.13 89.07 02/08/2018 20:58:15 74.14,-141.19 89.08 1.70 42
6 02/08/2018 21:48:24 -74.21, 26.34 90.87 02/08/2018 21:48:55 -74.21, 26.32 90.87 0.65 31
7 02/11/2018 16:33:14 74.15, -74.74 88.17 02/11/2018 16:32:33 74.16, -74.73 88.19 0.90 41
8 02/11/2018 17:22:41 -74.22, 92.75 91.77 02/11/2018 17:23:13 -74.23, 92.79 91.76 2.01 32
9 02/14/2018 12:07:30 74.18, -8.36 87.25 02/14/2018 12:06:50 74.18, -8.27 87.26 2.60 40
10 02/14/2018 12:56:57 -74.23, 159.14 92.70 02/14/2018 12:57:31 -74.20, 159.12 92.73 3.55 34




NCC Satellite Simultaneous Nadir Overpasses (SNOs) Prediction Service
